Probability
3 4 6 6 6 5 5 6 6 6 6 6 7 8 8 7 7 6 4 3 4 5 6 6 6 5 5 6 5 6 7 7 6 6 6 6 6 6 6 6 6 6 6
3 4 6 7 6 6 5 5 5 6 5 6 7 7 7 6 6 6 5 4 5 5 6 6 7 7 6 6 6 7 8 8 7 6 6 6 6 6 6 6 6 6 6
3 4 6 7 6 6 5 4 4 4 4 6 7 6 5 4 5 7 7 7 6 6 5 6 8 9 8 7 7 8 9 8 7 6 6 6 6 6 6 6 6 6 5
3 4 5 6 6 6 6 4 3 3 4 5 6 5 4 4 5 7 8 8 8 6 5 5 8 10 9 8 8 9 9 8 6 5 4 4 5 6 6 6 6 6 4
3 4 5 7 7 6 6 5 4 3 3 4 4 4 4 5 5 7 8 9 9 7 5 5 8 9 9 9 8 8 7 6 5 3 2 2 3 5 6 6 6 6 4
3 4 6 8 7 6 7 6 4 3 3 3 4 4 5 5 5 6 7 8 9 8 6 6 6 7 8 9 8 7 5 3 3 2 1 1 2 5 6 6 6 5 4
3 4 6 9 9 7 6 6 5 4 4 4 5 5 5 4 4 4 5 6 6 7 7 5 3 4 6 7 7 7 4 1 1 1 0 0 1 4 6 6 4 3 3
3 3 5 8 9 8 6 5 4 4 4 5 5 4 4 3 3 4 5 5 4 4 4 3 2 3 4 5 6 6 4 1 0 0 0 0 1 4 6 6 4 2 1
4 3 4 5 7 7 5 4 4 4 4 4 4 3 3 3 3 5 5 4 2 2 2 2 2 3 3 4 5 6 5 3 1 0 0 0 2 5 6 5 4 2 1
4 3 3 3 3 4 3 3 3 3 3 3 4 4 3 3 4 5 5 3 1 0 0 1 2 3 3 3 4 5 5 3 1 0 0 1 3 5 5 5 4 3 1
3 2 2 2 1 1 1 1 2 3 2 3 4 4 3 2 3 3 2 1 0 0 0 0 1 2 2 2 2 3 3 1 0 0 0 2 4 4 4 4 5 4 2
3 1 1 1 0 0 0 1 1 1 1 1 1 1 1 1 1 1 1 1 0 0 0 0 0 1 1 1 1 1 1 0 0 0 1 3 5 5 4 5 5 3 2
1 1 1 1 1 0 0 0 0 0 0 0 0 0 0 0 0 0 0 0 0 0 0 0 0 0 0 0 0 0 0 0 0 0 1 3 5 6 5 5 5 3 3
1 2 2 2 2 1 0 0 0 0 0 0 0 0 0 0 0 0 0 0 0 0 0 0 0 0 0 0 0 0 0 0 0 0 1 3 4 5 5 5 4 3 3
2 3 4 4 3 2 1 0 0 0 0 0 0 0 0 0 0 0 0 0 0 0 0 0 0 0 0 0 0 0 0 0 0 0 1 2 3 4 4 4 3 2 2
5 5 6 6 5 3 2 1 0 0 0 0 0 0 0 0 0 0 0 0 0 0 0 0 0 0 0 0 0 0 0 0 1 2 2 2 3 3 3 3 2 1 1
6 6 8 8 6 5 3 2 1 0 0 0 0 0 0 0 1 0 0 0 0 0 0 0 0 0 0 0 0 0 0 0 1 2 2 2 2 2 4 4 3 1 0
7 8 9 9 7 5 4 2 1 0 0 0 0 0 0 0 0 0 0 0 0 0 0 0 0 0 0 0 0 0 0 0 1 1 1 1 0 1 3 4 4 3 1
9 10 11 10 7 4 3 2 1 0 0 0 0 0 0 0 0 0 0 0 0 0 0 0 0 0 0 0 0 0 0 0 0 0 0 0 0 0 1 2 3 3 3
11 11 12 10 6 2 1 1 0 0 0 0 0 1 1 0 0 0 0 0 1 1 1 2 1 1 0 0 0 0 0 0 0 0 0 0 0 0 0 0 1 2 2
12 12 10 7 4 1 0 0 0 0 0 0 0 1 1 0 0 0 0 0 1 2 2 3 3 2 1 0 0 0 0 0 0 0 0 0 0 0 0 0 0 1 1
14 12 9 5 3 2 1 0 1 1 1 0 0 1 1 0 0 1 1 1 1 1 1 2 2 2 1 0 0 0 0 0 0 0 0 0 0 0 0 0 0 1 1
16 13 8 5 5 5 3 2 3 3 2 1 0 0 0 1 1 2 2 1 0 0 0 1 1 1 0 0 0 0 0 0 0 0 0 0 0 0 0 0 0 1 2
18 14 9 7 7 6 6 5 5 4 2 1 0 0 0 1 2 2 1 1 0 0 0 0 0 0 0 0 0 0 0 0 0 0 0 0 0 0 0 0 0 1 1
19 16 12 10 8 6 6 6 6 4 2 1 0 0 0 1 2 2 1 0 0 0 0 0 0 0 0 0 0 0 0 0 0 0 0 0 0 0 0 0 0 0 0
19 17 14 11 8 6 6 6 6 4 2 1 0 0 0 0 1 1 0 0 0 0 0 0 0 0 0 0 0 0 0 0 0 0 0 0 0 0 0 0 0 0 0
Wind_Speed
1 1 6 8 11 11 12 12 13 14 14 15 15 15 16 16 16 16 15 15 14 14 14 13 13 13 14 14 14 14 15 14 14 14 14 14 13 13 13 13 12 9 13
3 3 7 9 11 12 12 13 13 14 15 15 15 15 16 16 16 16 15 14 14 14 13 13 13 13 13 13 13 13 13 13 13 14 14 12 13 13 13 13 12 8 12
4 3 6 9 11 12 12 12 13 14 14 15 15 15 15 15 15 15 15 14 14 13 13 13 12 12 13 13 13 12 12 12 12 13 12 6 8 12 12 13 13 13 12
5 4 6 10 11 12 12 12 13 13 14 14 14 14 14 14 14 14 14 14 13 13 12 12 12 12 12 12 11 11 11 11 11 11 6 5 6 11 13 13 13 12 12
5 4 6 12 12 12 12 12 13 13 13 13 13 14 14 14 13 14 13 13 13 12 11 11 11 11 11 10 10 9 9 9 9 7 5 4 4 10 13 13 12 12 12
5 4 7 12 12 12 12 12 12 12 12 12 13 13 14 14 13 13 13 13 12 11 11 10 10 10 10 9 9 8 7 7 7 5 5 5 4 10 13 13 12 12 12
6 4 6 11 11 11 11 11 11 11 12 12 12 13 13 13 13 12 12 12 11 11 10 9 9 9 10 9 8 7 6 6 4 5 4 4 6 10 12 12 12 12 12
7 5 5 10 11 10 10 10 10 10 11 11 12 12 13 12 12 11 11 11 11 10 10 9 8 9 8 7 6 5 4 4 5 6 5 4 8 11 13 13 12 12 12
7 5 4 4 6 9 9 9 9 10 10 11 11 12 12 12 11 11 10 10 10 9 9 8 7 7 6 5 4 4 4 4 4 4 6 4 9 12 13 13 12 12 12
6 5 4 3 3 3 5 8 9 9 9 11 11 12 12 12 11 10 9 9 9 8 8 7 7 6 5 4 3 3 4 3 2 4 3 6 12 13 13 13 12 12 11
5 3 4 3 3 3 3 6 7 8 9 9 9 11 9 5 4 5 7 8 8 7 7 6 5 4 3 2 2 2 2 1 2 2 3 8 13 13 13 12 12 12 11
5 4 3 3 3 3 3 3 2 3 3 3 3 4 4 3 3 4 5 7 7 6 6 5 4 3 1 0 1 0 1 1 1 2 4 10 12 13 13 12 12 12 11
7 6 4 4 4 3 2 3 2 1 2 2 3 3 3 3 2 2 2 2 3 3 2 2 1 0 0 1 1 1 1 1 1 2 4 10 12 12 12 12 12 12 11
6 6 5 4 4 4 3 3 2 2 2 2 2 3 3 2 2 2 2 2 1 1 1 1 1 1 1 1 1 1 1 2 2 2 4 10 11 11 12 12 12 12 11
6 5 5 5 5 4 4 3 3 2 3 2 2 2 3 3 3 2 2 2 2 1 2 2 2 1 1 1 1 1 2 2 3 3 2 9 10 10 11 12 11 11 10
6 5 4 5 5 5 4 3 3 3 3 3 2 3 3 3 3 3 2 2 2 2 2 2 2 2 1 1 1 1 2 2 3 3 2 4 7 8 9 9 10 10 9
7 6 5 5 5 5 4 3 3 2 3 3 2 2 3 3 3 3 2 1 1 2 2 1 1 1 1 1 1 1 2 2 3 3 3 2 2 5 7 8 7 7 7
7 6 5 5 5 4 3 3 2 2 3 2 2 2 2 2 3 2 2 1 1 2 2 2 1 1 1 1 1 1 1 2 3 3 2 2 1 1 3 5 5 5 6
8 6 5 5 5 3 3 3 3 3 2 2 2 1 1 2 2 2 2 1 2 2 1 1 1 2 2 1 1 1 1 1 1 2 2 2 1 1 1 2 3 4 4
7 6 6 5 4 4 3 2 3 3 2 1 1 1 2 1 2 2 2 1 2 2 1 1 1 1 1 2 2 2 1 1 1 1 2 2 1 1 1 1 0 1 1
7 6 6 5 4 3 2 2 2 1 1 1 1 1 2 2 2 2 2 1 2 2 1 1 1 1 1 2 3 2 2 2 2 1 1 2 2 2 2 2 1 1 1
7 6 6 5 4 4 3 2 2 2 1 1 0 1 1 2 2 2 2 2 2 2 2 2 2 1 1 1 2 2 2 3 3 3 2 2 2 1 2 2 2 2 1
8 8 7 6 5 4 3 2 2 2 2 2 1 0 1 2 2 2 3 2 2 2 2 2 2 2 1 0 1 3 3 2 0 2 2 2 2 2 1 1 2 2 2
9 8 7 7 6 5 4 4 4 3 2 2 1 1 0 1 1 2 2 2 2 2 2 1 2 1 2 1 0 0 2 3 3 1 1 1 1 2 1 2 2 1 2
10 9 7 6 5 5 5 5 4 3 2 1 1 1 1 1 1 2 2 2 2 1 2 1 1 1 1 2 1 1 1 1 2 3 1 0 1 1 1 1 2 1 1
9 8 8 7 5 5 5 4 4 4 3 2 2 1 1 0 0 1 2 1 1 2 2 1 1 2 1 1 1 1 2 1 2 2 2 1 1 0 1 1 1 1 1
Wind_Direction
50 121 106 100 100 99 99 99 103 105 107 109 110 111 112 114 117 121 123 124 125 124 125 124 123 123 122 124 126 125 126 127 130 131 131 131 132 133 131 128 125 122 123
141 119 106 101 104 105 105 104 106 106 109 110 112 113 114 115 118 122 123 123 124 123 123 123 123 124 124 125 127 126 127 129 130 131 130 132 135 136 134 132 131 130 129
115 109 107 105 106 108 109 111 111 110 111 112 112 115 117 117 118 120 120 122 124 123 123 124 125 126 126 127 127 128 129 131 132 132 131 129 134 137 136 134 134 132 132
116 108 110 110 111 111 110 112 114 114 114 113 114 118 118 119 120 121 121 123 123 122 124 125 127 130 131 131 130 131 133 135 135 138 139 138 141 141 141 139 138 137 137
109 104 114 110 112 112 111 111 114 116 115 116 118 120 121 120 121 121 121 122 122 121 124 127 132 133 132 133 133 134 136 138 140 140 133 135 137 147 146 143 144 142 140
107 102 113 112 110 111 113 114 115 117 120 121 121 122 124 122 120 120 121 122 121 121 122 127 133 138 136 135 136 137 138 141 135 130 138 145 146 153 151 150 150 147 145
116 108 113 117 116 115 115 116 118 121 125 126 127 127 127 125 123 122 121 123 122 121 118 120 129 138 136 135 135 136 135 137 136 137 150 154 159 159 157 156 156 152 150
127 121 121 122 121 120 120 121 124 128 128 131 133 133 131 128 125 125 124 123 123 120 118 118 123 128 131 132 131 132 133 138 131 147 154 160 168 167 164 160 156 154 153
126 123 116 121 124 126 127 127 128 128 130 135 137 138 137 133 130 129 126 125 125 124 124 126 124 128 136 138 137 135 141 135 126 150 162 165 174 171 166 162 159 158 158
121 125 124 116 110 117 125 133 136 133 133 137 140 141 141 140 140 136 134 136 137 136 137 139 140 140 139 139 141 141 136 121 136 158 159 173 175 173 168 166 165 163 164
120 124 130 123 119 121 132 137 138 136 134 136 139 142 137 132 138 142 147 150 152 152 153 154 155 153 151 139 144 161 148 135 152 155 166 173 175 176 173 171 171 170 170
139 144 144 140 139 138 136 114 112 121 119 117 124 135 132 136 149 158 165 166 165 167 169 169 172 172 165 85 67 84 141 160 159 176 174 171 174 176 175 173 173 173 175
152 153 153 151 146 141 121 124 118 108 106 117 133 143 140 138 143 149 148 165 172 175 173 178 190 183 155 181 177 176 192 177 178 183 178 175 175 179 179 177 175 178 183
138 146 143 143 135 135 129 131 134 132 125 134 153 147 139 135 138 147 151 159 162 159 156 146 157 185 201 208 195 188 182 176 173 171 178 176 176 181 182 181 180 185 190
122 123 125 127 125 126 120 130 133 140 142 144 140 141 143 140 147 153 153 160 172 169 170 158 171 177 192 218 209 171 164 164 144 147 160 172 177 182 185 189 189 192 197
125 129 126 117 116 114 109 113 122 132 133 127 130 134 136 139 145 148 153 162 169 173 171 167 176 174 187 174 172 171 159 144 138 146 145 172 184 187 190 190 193 197 202
138 138 139 126 113 111 110 109 114 125 126 126 129 129 131 130 135 139 141 150 165 156 154 152 155 145 146 130 108 109 138 137 139 142 147 167 189 192 191 191 194 196 201
140 143 150 133 122 117 111 104 100 108 116 122 128 126 128 127 129 120 126 156 159 140 141 147 138 116 101 103 77 62 101 123 134 144 144 147 159 187 198 191 190 199 207
148 146 141 132 133 127 110 101 97 101 108 119 119 116 126 129 131 126 144 153 137 130 134 158 140 139 139 136 130 86 69 114 140 140 133 136 168 179 190 186 197 210 212
148 142 140 137 136 126 110 89 82 79 88 103 119 129 133 135 127 129 138 129 127 120 111 108 125 121 154 157 119 76 46 55 88 111 141 141 145 155 147 119 64 40 114
146 143 144 143 145 127 112 113 111 106 108 104 152 155 139 138 134 115 118 108 110 124 143 138 117 97 85 112 88 51 22 28 40 47 81 96 96 103 102 98 80 51 41
159 154 149 153 150 144 140 144 147 144 154 157 135 105 131 130 134 124 116 118 120 121 109 108 104 104 98 116 122 105 47 9 15 36 59 95 90 79 90 99 92 84 58
166 165 162 160 157 156 144 118 100 72 51 51 50 42 73 115 110 109 123 120 117 124 130 135 122 126 143 238 133 139 144 189 301 360 34 66 86 82 79 91 105 97 91
174 166 157 159 159 158 146 134 137 139 147 188 178 155 47 90 99 114 121 118 122 126 133 150 131 127 136 158 301 129 152 152 146 127 2 20 76 89 91 103 93 84 87
171 165 161 156 156 156 149 147 141 141 158 156 114 109 74 51 86 111 119 116 128 134 134 118 110 114 132 149 155 136 90 84 112 138 168 300 36 23 62 102 105 101 91
167 163 160 155 157 155 151 148 151 157 158 143 137 142 126 45 35 98 121 120 130 132 135 135 120 123 120 120 124 130 140 144 165 144 157 166 158 346 46 82 114 125 116